| time (UTC) | temp C | wind direction | speed KPH | gust KPH | rain 1hr cm | rain 24hr cm | rain mn cm | humidity % | barometer mb |
| 20260508001545 | 7 | 0 | 0.0 | 4.8 | 0.00 | 3.40 | 3.40 | 100 | 1002.3 |
| 20260508000044 | 7 | 179 | 0.0 | 9.7 | 0.00 | 3.40 | 3.40 | 100 | 1002.3 |
| 20260507234540 | 7 | 235 | 4.8 | 14.5 | 0.00 | 3.40 | 3.40 | 100 | 1002.3 |
| 20260507233038 | 7 | 179 | 4.8 | 14.5 | 0.00 | 3.40 | 3.40 | 100 | 1002.3 |
| 20260507231544 | 7 | 203 | 6.4 | 14.5 | 0.00 | 3.40 | 3.40 | 100 | 1002.0 |
| 20260507230044 | 7 | 172 | 9.7 | 17.7 | 0.00 | 3.40 | 3.40 | 100 | 1002.5 |
| 20260507224600 | 7 | 179 | 4.8 | 16.1 | 0.00 | 3.40 | 3.40 | 100 | 1002.7 |
| 20260507223050 | 7 | 168 | 6.4 | 16.1 | 0.00 | 3.40 | 3.40 | 100 | 1002.5 |
| 20260507221539 | 7 | 161 | 11.3 | 22.5 | 0.00 | 3.40 | 3.40 | 100 | 1002.8 |
| 20260507220038 | 8 | 160 | 9.7 | 25.7 | 0.00 | 3.40 | 3.40 | 100 | 1002.8 |
| 20260507214542 | 8 | 202 | 12.9 | 32.2 | 0.03 | 3.40 | 3.40 | 100 | 1003.0 |
| 20260507213043 | 8 | 167 | 9.7 | 24.1 | 0.03 | 3.40 | 3.40 | 100 | 1003.2 |
| 20260507211554 | 8 | 195 | 14.5 | 25.7 | 0.05 | 3.40 | 3.40 | 100 | 1002.9 |
| 20260507210041 | 8 | 201 | 11.3 | 29.0 | 0.18 | 3.40 | 3.40 | 100 | 1002.8 |
| 20260507204538 | 8 | 144 | 12.9 | 27.4 | 0.25 | 3.38 | 3.38 | 100 | 1002.3 |
| 20260507203044 | 8 | 124 | 12.9 | 22.5 | 0.48 | 3.38 | 3.38 | 100 | 1003.2 |
| 20260507201543 | 8 | 137 | 6.4 | 17.7 | 0.74 | 3.35 | 3.35 | 100 | 1003.7 |
| 20260507200047 | 8 | 151 | 6.4 | 24.1 | 1.02 | 3.23 | 3.23 | 100 | 1003.9 |
| 20260507194541 | 8 | 164 | 9.7 | 22.5 | 1.47 | 3.12 | 3.12 | 100 | 1004.2 |
| 20260507193039 | 8 | 147 | 11.3 | 22.5 | 1.63 | 2.90 | 2.90 | 100 | 1004.9 |
| 20260507191539 | 7 | 145 | 8.0 | 22.5 | 1.75 | 2.62 | 2.62 | 100 | 1005.4 |
| 20260507190045 | 7 | 207 | 11.3 | 32.2 | 1.75 | 2.18 | 2.18 | 100 | 1005.7 |
| 20260507184543 | 7 | 233 | 14.5 | 35.4 | 1.24 | 1.60 | 1.60 | 100 | 1005.6 |
| 20260507183040 | 7 | 157 | 16.1 | 32.2 | 0.94 | 1.24 | 1.24 | 100 | 1005.8 |
| 20260507181542 | 6 | 199 | 16.1 | 33.8 | 0.58 | 0.84 | 0.84 | 99 | 1006.2 |
| 20260507180045 | 7 | 145 | 11.3 | 35.4 | 0.18 | 0.43 | 0.43 | 100 | 1005.9 |
| 20260507174540 | 7 | 112 | 20.9 | 41.8 | 0.08 | 0.33 | 0.33 | 100 | 1005.4 |
| 20260507173044 | 7 | 184 | 16.1 | 38.6 | 0.05 | 0.30 | 0.30 | 100 | 1005.5 |
| 20260507171542 | 8 | 137 | 19.3 | 43.5 | 0.03 | 0.25 | 0.25 | 100 | 1006.1 |
| 20260507170043 | 7 | 162 | 19.3 | 38.6 | 0.03 | 0.25 | 0.25 | 100 | 1006.1 |
| 20260507164541 | 7 | 163 | 19.3 | 38.6 | 0.03 | 0.25 | 0.25 | 100 | 1006.6 |
| 20260507163039 | 7 | 200 | 16.1 | 41.8 | 0.03 | 0.25 | 0.25 | 100 | 1007.1 |
| 20260507161545 | 7 | 169 | 17.7 | 35.4 | 0.00 | 0.23 | 0.23 | 100 | 1007.5 |
| 20260507160044 | 7 | 210 | 11.3 | 35.4 | 0.00 | 0.23 | 0.23 | 100 | 1008.1 |
| 20260507154544 | 7 | 171 | 19.3 | 38.6 | 0.00 | 0.23 | 0.23 | 100 | 1008.3 |
| 20260507153042 | 7 | 147 | 19.3 | 38.6 | 0.00 | 0.23 | 0.23 | 99 | 1008.8 |
| 20260507151543 | 7 | 172 | 19.3 | 48.3 | 0.00 | 0.23 | 0.23 | 99 | 1009.2 |
| 20260507150038 | 7 | 179 | 22.5 | 43.5 | 0.00 | 0.23 | 0.23 | 99 | 1009.2 |
| 20260507144538 | 7 | 193 | 22.5 | 41.8 | 0.00 | 0.23 | 0.23 | 99 | 1009.5 |
| 20260507143044 | 7 | 174 | 24.1 | 40.2 | 0.00 | 0.23 | 0.23 | 100 | 1009.7 |
| 20260507141543 | 7 | 155 | 19.3 | 41.8 | 0.00 | 0.23 | 0.23 | 100 | 1010.0 |
| 20260507140056 | 7 | 184 | 25.7 | 41.8 | 0.00 | 0.23 | 0.23 | 100 | 1010.4 |
| 20260507134541 | 7 | 141 | 22.5 | 37.0 | 0.00 | 0.23 | 0.23 | 99 | 1010.7 |
| 20260507133040 | 7 | 166 | 20.9 | 40.2 | 0.00 | 0.23 | 0.23 | 99 | 1010.7 |
| 20260507131547 | 7 | 164 | 22.5 | 45.1 | 0.00 | 0.23 | 0.23 | 100 | 1011.3 |
| 20260507130043 | 7 | 172 | 24.1 | 45.1 | 0.03 | 0.23 | 0.23 | 99 | 1010.9 |
| 20260507124545 | 7 | 184 | 24.1 | 43.5 | 0.03 | 0.23 | 0.23 | 100 | 1010.9 |
| 20260507123043 | 7 | 151 | 24.1 | 46.7 | 0.03 | 0.23 | 0.23 | 99 | 1010.6 |
| 20260507121540 | 8 | 172 | 22.5 | 46.7 | 0.05 | 0.23 | 0.23 | 100 | 1011.2 |
| 20260507120039 | 7 | 179 | 20.9 | 43.5 | 0.03 | 0.20 | 0.20 | 99 | 1011.1 |
| 20260507114538 | 7 | 184 | 24.1 | 41.8 | 0.08 | 0.20 | 0.20 | 100 | 1011.5 |
| 20260507113044 | 7 | 122 | 25.7 | 45.1 | 0.10 | 0.20 | 0.20 | 99 | 1011.9 |
| 20260507111547 | 7 | 148 | 22.5 | 41.8 | 0.08 | 0.18 | 0.18 | 99 | 1012.0 |
| 20260507110049 | 8 | 145 | 17.7 | 48.3 | 0.08 | 0.18 | 0.18 | 100 | 1011.8 |
| 20260507104541 | 7 | 144 | 24.1 | 43.5 | 0.05 | 0.13 | 0.13 | 100 | 1011.7 |
| 20260507103039 | 7 | 179 | 19.3 | 38.6 | 0.03 | 0.10 | 0.10 | 100 | 1012.2 |
| 20260507101556 | 7 | 179 | 19.3 | 38.6 | 0.03 | 0.10 | 0.10 | 99 | 1012.6 |
| 20260507100045 | 6 | 155 | 20.9 | 38.6 | 0.00 | 0.08 | 0.08 | 99 | 1012.5 |
| 20260507094554 | 6 | 170 | 19.3 | 38.6 | 0.00 | 0.08 | 0.08 | 99 | 1012.5 |
| 20260507093042 | 7 | 165 | 16.1 | 35.4 | 0.00 | 0.08 | 0.08 | 99 | 1012.3 |
| 20260507091553 | 7 | 169 | 16.1 | 33.8 | 0.00 | 0.08 | 0.08 | 99 | 1012.1 |
| 20260507090051 | 7 | 172 | 12.9 | 27.4 | 0.00 | 0.08 | 0.08 | 99 | 1012.5 |
| 20260507084538 | 7 | 141 | 17.7 | 37.0 | 0.00 | 0.08 | 0.08 | 99 | 1013.0 |
| 20260507083041 | 7 | 169 | 20.9 | 37.0 | 0.00 | 0.08 | 0.08 | 99 | 1013.0 |
| 20260507081553 | 7 | 165 | 14.5 | 32.2 | 0.05 | 0.08 | 0.08 | 99 | 1012.9 |
| 20260507080042 | 7 | 205 | 9.7 | 25.7 | 0.05 | 0.08 | 0.08 | 99 | 1013.1 |
| 20260507074541 | 7 | 174 | 12.9 | 30.6 | 0.08 | 0.08 | 0.08 | 99 | 1013.3 |
| 20260507073054 | 7 | 160 | 20.9 | 38.6 | 0.08 | 0.08 | 0.08 | 99 | 1013.7 |
| 20260507071538 | 6 | 166 | 19.3 | 32.2 | 0.03 | 0.03 | 0.03 | 99 | 1013.9 |
| 20260507070058 | 7 | 150 | 14.5 | 25.7 | 0.03 | 0.03 | 0.03 | 99 | 1013.9 |
| 20260507064550 | 7 | 179 | 12.9 | 27.4 | 0.00 | 0.00 | 0.00 | 99 | 1014.5 |
| 20260507063044 | 7 | 149 | 14.5 | 30.6 | 0.00 | 0.00 | 0.00 | 99 | 1014.7 |
| 20260507061543 | 7 | 179 | 12.9 | 25.7 | 0.00 | 0.00 | 0.00 | 99 | 1014.6 |
| 20260507060043 | 7 | 215 | 14.5 | 27.4 | 0.00 | 0.00 | 0.00 | 99 | 1015.0 |
| 20260507054546 | 7 | 162 | 11.3 | 25.7 | 0.00 | 0.00 | 0.00 | 99 | 1015.1 |
| 20260507053042 | 7 | 147 | 9.7 | 19.3 | 0.00 | 0.00 | 0.00 | 99 | 1015.4 |
| 20260507051539 | 7 | 160 | 9.7 | 20.9 | 0.00 | 0.00 | 0.00 | 99 | 1015.8 |
| 20260507050037 | 7 | 179 | 8.0 | 17.7 | 0.00 | 0.00 | 0.00 | 99 | 1015.9 |
| 20260507044545 | 6 | 153 | 6.4 | 16.1 | 0.00 | 0.00 | 0.00 | 99 | 1016.4 |
| 20260507043041 | 6 | 194 | 4.8 | 12.9 | 0.00 | 0.00 | 0.00 | 99 | 1016.5 |
| 20260507041538 | 6 | 146 | 8.0 | 14.5 | 0.00 | 0.00 | 0.00 | 98 | 1016.9 |
| 20260507040049 | 6 | 170 | 4.8 | 14.5 | 0.00 | 0.00 | 0.00 | 98 | 1017.2 |
| 20260507034547 | 6 | 126 | 3.2 | 9.7 | 0.00 | 0.00 | 0.00 | 98 | 1017.5 |
| 20260507033044 | 6 | 151 | 4.8 | 8.0 | 0.00 | 0.00 | 0.00 | 98 | 1017.7 |
| 20260507031542 | 6 | 198 | 4.8 | 12.9 | 0.00 | 0.00 | 0.00 | 98 | 1017.9 |
| 20260507030041 | 6 | 176 | 6.4 | 16.1 | 0.00 | 0.00 | 0.00 | 98 | 1017.9 |
| 20260507024538 | 6 | 151 | 9.7 | 20.9 | 0.00 | 0.00 | 0.00 | 98 | 1018.1 |
| 20260507023037 | 6 | 172 | 8.0 | 17.7 | 0.00 | 0.00 | 0.00 | 98 | 1018.5 |
| 20260507021543 | 7 | 174 | 9.7 | 19.3 | 0.00 | 0.00 | 0.00 | 98 | 1018.6 |
| 20260507020040 | 7 | 174 | 9.7 | 20.9 | 0.00 | 0.00 | 0.00 | 98 | 1018.6 |
| 20260507014552 | 6 | 172 | 11.3 | 22.5 | 0.00 | 0.00 | 0.00 | 97 | 1018.6 |
| 20260507013038 | 7 | 179 | 16.1 | 27.4 | 0.00 | 0.00 | 0.00 | 97 | 1018.8 |
| 20260507011538 | 7 | 205 | 11.3 | 25.7 | 0.00 | 0.00 | 0.00 | 98 | 1018.9 |
| 20260507010038 | 7 | 175 | 12.9 | 25.7 | 0.00 | 0.00 | 0.00 | 97 | 1019.1 |
| 20260507004543 | 7 | 160 | 11.3 | 25.7 | 0.00 | 0.00 | 0.00 | 97 | 1019.2 |
| 20260507003039 | 7 | 173 | 12.9 | 25.7 | 0.00 | 0.00 | 0.00 | 97 | 1019.0 |